Simultaneous Nadir Overpasses (SNOs) Predictions

Prediction of SNOs between GOES-16 and AQUA Satellite Orbit:

Table of predicted SNOs for the next 14.0 days since TLE Epoch: 12/31/2016
Index Date Time (GOES-16) GOES-16 Lat,Lon AQUA Lat,Lon Distance(km) Time Diff (sec)
1 01/01/2017 07:45:50 0.02, -89.43 0.62, -92.22 317.12 80
2 01/03/2017 07:30:59 0.01, -89.43 -0.02, -89.26 19.45 80
3 01/05/2017 07:18:49 0.01, -89.44 -0.66, -86.31 356.31 80
4 01/05/2017 19:42:52 -0.01, -89.45 -0.43, -91.50 232.09 80
5 01/07/2017 19:28:00 -0.01, -89.46 0.16, -88.53 105.14 80
6 01/08/2017 07:51:56 0.02, -89.45 0.94, -93.69 482.37 80
7 01/09/2017 19:15:49 -0.01, -89.47 0.81, -85.58 442.37 80
8 01/10/2017 07:39:45 0.02, -89.46 0.28, -90.73 145.08 80
9 01/12/2017 07:24:53 0.01, -89.47 -0.32, -87.77 192.51 80
10 01/12/2017 19:48:57 -0.02, -89.48 -0.77, -92.96 395.77 80




NCC Satellite Simultaneous Nadir Overpasses (SNOs) Prediction Service
